Location: Jacksonville
(30.3320°N, 81.6560°W)
Time: 13:58:10
(UTC-04:00)

ACS3 Solar Sail - Visible Passes

Search period start: 08 June 2026 00:00
Search period end: 18 June 2026 00:00
Orbit: 878 x 952 km, 97.2° (Epoch: 8 June)

Date Brightness Start Highest point End Pass type
(mag) Time Alt. Az. Time Alt. Az. Time Alt. Az.
8 Jun 4.1 00:31:46 10° ENE 00:31:56 10° ENE 00:31:56 10° ENE visible
8 Jun 2.7 02:11:34 10° N 02:15:18 40° NNW 02:15:18 40° NNW visible
9 Jun 4.0 00:38:08 10° NE 00:39:04 13° ENE 00:39:04 13° ENE visible
9 Jun 2.8 02:18:41 10° N 02:22:26 37° NNW 02:22:26 37° NNW visible
10 Jun 3.8 00:44:38 10° NE 00:46:10 15° ENE 00:46:10 15° ENE visible
10 Jun 2.9 02:25:46 10° N 02:29:31 34° NW 02:29:31 34° NW visible
11 Jun 3.7 00:51:11 10° NE 00:53:11 18° ENE 00:53:11 18° ENE visible
11 Jun 3.0 02:32:50 10° N 02:36:33 31° NW 02:36:33 31° NW visible
12 Jun 3.5 00:57:46 10° NE 01:00:09 21° NE 01:00:09 21° NE visible
12 Jun 3.1 02:39:52 10° NNW 02:43:31 27° NW 02:43:31 27° NW visible
13 Jun 3.4 01:04:20 10° NNE 01:07:04 24° NE 01:07:04 24° NE visible
13 Jun 3.3 02:46:54 10° NNW 02:50:25 24° NW 02:50:25 24° NW visible
14 Jun 3.2 01:10:56 10° NNE 01:13:56 28° NE 01:13:56 28° NE visible
14 Jun 3.4 02:53:56 10° NNW 02:57:16 21° NW 02:57:16 21° NW visible
15 Jun 3.0 01:17:29 10° NNE 01:20:44 32° NE 01:20:44 32° NE visible
15 Jun 3.5 03:00:59 10° NNW 03:04:04 18° WNW 03:04:04 18° WNW visible
16 Jun 2.9 01:24:02 10° NNE 01:27:28 35° NE 01:27:28 35° NE visible
16 Jun 3.7 03:08:05 10° NNW 03:10:48 16° WNW 03:10:48 16° WNW visible
17 Jun 2.8 01:30:33 10° NNE 01:34:09 39° NNE 01:34:09 39° NNE visible
17 Jun 3.8 03:15:17 10° NW 03:17:29 13° WNW 03:17:29 13° WNW visible
